Location: Seattle
(47.6064°N, 122.3308°W)
Time: 00:45:21
(UTC-07:00)

SEEDS - Pass Details

Date: 11 April 2023
Orbit: 568 x 587 km, 97.7° (Epoch: 28 May)

Event Time Altitude Azimuth Distance (km) Brightness Sun altitude
Rises 04:43:52 0° 19° (NNE) 2,836 ? -16.9°
Reaches altitude 10° 04:46:09 10° 27° (NNE) 1,928 ? -16.6°
Maximum altitude 04:50:07 41° 98° (E) 859 ? -16.1°
Drops below altitude 10° 04:54:03 10° 169° (S) 1,904 ? -15.5°
Enters shadow 04:55:33 - 175° (S) 2,498 ? -15.3°
